OPS 4682 DEB, 11631

Orbit data source: Space-Track

OPS 4682 DEB, 11631 is space debris in LEO originally from a launch on Sat, 03 Apr 1965 UTC launched from the Air Force Western Test Range (AFWTR). Debris objects in space refer to the collection of defunct objects orbiting the Earth. Examples of debris include non-operational satellites, rocket bodies, and fragments generated from explosions, collisions, or faulty payload assembly.

Loading next visibility...
Identifier
11631, 1965-027F
Orbit
LEO
Country
Flag of USUS
Related business
Manufacturer
Unknown
Mission
Spacecraft
Bus & Motor
Unknown
Mass
Unknown
Launch date (UTC)
1965-04-03 (61 years ago)
Launch vehicle
Unknown
Launch site
Air Force Western Test Range (AFWTR)
Object type
Payload
Rocket body
Debris
Shape & HBR
Unknown shape, 0.1 m
Radar Cross Section
Small (<0.1 m²)

Expand to show TLE details & history
Last TLE update: 22 hours ago

TLE from 22 hours ago
0 OPS 4682 DEB
1 11631U 65027F   26035.37354219  .00000329  00000-0  11137-2 0  9991
2 11631  90.2401   3.0517 0043574  63.7500  88.9834 12.96713358108565
Epoch: 2026-02-04T08:57Z
TLE epoch observation values (Epoch: 2026-02-04T08:57:54.045Z)
Latitude
26.80008°
Longitude
-85.84386°
Altitude
1,277.809 km
Speed
7.219 km/s
True Right ascension
12h 12m 41s
True Declination
26° 40' 17"
Sunlit
Object was in full shadow at epoch
Visualization orbit readout
Latitude
Unknown
Longitude
Unknown
Altitude
Unknown
Speed
Unknown
Apparent Right ascension
Unknown
Apparent Declination
Unknown
Sunlit
N/A
Visualization observer readout
Local Sidereal Time
08:44:06
Azimuth
Unknown
Elevation
Unknown
Doppler factor
Unknown
Orbital elements
Apogee altitude
1,305.458 km
Perigee altitude
1,238.788 km
Semi-major axis
7,650.26 km
Eccentricity
0.00436
Inclination
90.2401°
RAAN
3.0517°
Arg. of periapsis
63.75°
True anomaly
89.48268°
Mean anomaly
88.9834°
Eccentric anomaly
89.23304°
Mean motion
3.24361 °/min
Orbital period
110.99 mins
BSTAR
0.0011137
Loading maneuver chart data...
Computing Atmospheric mass density...
Loading historical data...
Loading historical data...
Loading historical data...
Loading historical data...
Loading historical data...
Loading historical data...
Loading historical data...

Documentation

Showing up to 5 results
|